sat.trackr.live / text

‹ back to catalog

STARLINK-37889

NORAD 69536 · 2026-133AE

PAYLOAD ACTIVE UNKNOWN

§ Identity

Operator
Country
US
Launch date
2026-06-12
Launch site
AFETR
Launch vehicle
Mass (kg)
RCS (m²)

Purposes: comms

External: N2YO · Heavens-Above · Gunter

§ Orbital elements

Epoch: 2026-09-19T12:18:37.190880Z

Period
93.85 min
Inclination
53.1574°
Eccentricity
0.0002257
Mean motion
15.34409807 rev/d
Perigee alt
461.1 km
Apogee alt
464.2 km
Semi-major
6,840.8 km
B*
5.7133e-4
RAAN
234.2572°
Arg perigee
87.1116°
Mean anomaly
273.0145°
Rev number
1,661

§ Raw data

STARLINK-378891 69536U 26133AE  26262.51293045  .00018982  00000+0  57133-3 0  99902 69536  53.1574 234.2572 0002257  87.1116 273.0145 15.34409807 16618

JSON: /api/v1/satellites/69536 · /tle

For live sub-satellite position, see the globe view (requires WebGL).

§ Visibility from observer

Set your observer location to see the next 7 days of passes ≥ 10°. The values pass through the URL so the page stays shareable.

No JS? Fill the form by hand. The geolocation button needs JavaScript.